Regional Weather Roundup
Issued by NWS

Home | Current Version | Previous Version | Text Only | Print | Product List | Glossary Off
Versions: 1 2 3 4 5 6 7 8 9 10 11 12 13 14 15 16 17 18 19 20 21 22 23 24 25 26 27 28 29 30 31 32 33 34 35 36 37 38 39 40 41 42 43 44 45 46 47 48 49 50

000
ASUS43 KLOT 210800
RWRIL

ILLINOIS REGIONAL WEATHER ROUNDUP
NATIONAL WEATHER SERVICE CHICAGO/ROMEOVILLE IL
300 AM CDT SUN SEP 21 2014

NOTE: "FAIR" INDICATES FEW OR NO CLOUDS BELOW 12,000 FEET WITH NO
SIGNIFICANT WEATHER AND/OR OBSTRUCTIONS TO VISIBILITY.

* THESE STATIONS ARE NOT UNDER NWS QUALITY CONTROL. THEY ALSO MAY NOT
  REPORT WEATHER SUCH AS PRECIPITATION OR FOG.

ILZ001-002-007-009-015-016-024-210900-
NORTHWEST ILLINOIS

CITY           SKY/WX    TMP DP  RH WIND       PRES   REMARKS
MOLINE         CLEAR     59  52  77 W9        29.90S
STERLING*      CLEAR     59  52  77 NW12      29.86R
$$

ILZ003-004-008-010-011-017-018-210900-
NORTH CENTRAL ILLINOIS

CITY           SKY/WX    TMP DP  RH WIND       PRES   REMARKS
ROCKFORD       CLEAR     59  55  87 NW13      29.83R
ROCHELLE*      CLEAR     59  55  85 W14       29.83R
$$

ILZ005-006-012>014-019>023-210900-
NORTHEAST ILLINOIS

CITY           SKY/WX    TMP DP  RH WIND       PRES   REMARKS
CHICAGO-OHARE  MOCLDY    65  57  75 NW21G28   29.74R
CHICAGO-MIDWAY MOCLDY    66  60  81 W18G25    29.74R
AURORA         PTCLDY    62  57  83 NW16G25   29.78R
LANSING*       MOCLDY    66  60  80 W16G25    29.75R
WAUKEGAN       CLOUDY    61  58  90 W8        29.71S
DUPAGE AIRPORT PTCLDY    63  57  81 NW17G28   29.76R
WHEELING       PTCLDY    65  58  78 NW16G26   29.75R
NORTHERLY ISL    N/A     66  59  78 W10         N/A
$$

LMZ740>746-210900-
SOUTHERN LAKE MICHIGAN

STATION/POSITION SKY/WX   TEMP    WIND        PRES    VSBY  WAVE
                          AIR SEA DIR/SP/G                  HT/PER
                          (F)     (DEG/KT/KT) (MB)    (MI)  (FT/S)
SOUTHERN BUOY              63 63  270/ 14/ 16 1004.4R         2/ 3
WAUKEGAN HARBOR            64     290/ 14/ 21   N/A
HARRISON CRIB              66     270/ 21/ 26   N/A
BURNHAM HARBOR             66     280/ 12/ 24   N/A
CALUMET HARBOR             65     250/  6/ 12 1005.6R
MICHIGAN CITY              67     210/ 24/ 28   N/A
MICHIGAN CITY 6N           67 66  260/ 19/ 23   N/A           4/ 3
ST. JOSEPH                 67 65  240/ 19/ 25   N/A           4/ 4
$$

ILZ025>027-034>036-040-047-049-050-058-095>099-210900-
WEST-CENTRAL ILLINOIS

CITY           SKY/WX    TMP DP  RH WIND       PRES   REMARKS
QUINCY         PTCLDY    65  59  81 NW18      29.94R
GALESBURG*     PTCLDY    60  55  83 NW12      29.92R
MACOMB*        PTCLDY    63  56  80 NW18G24   29.94R
$$

ILZ028>032-037-038-041>044-048-051>054-059>061-210900-
CENTRAL ILLINOIS

CITY           SKY/WX    TMP DP  RH WIND       PRES   REMARKS
DECATUR        PTCLDY    71  68  90 W9        29.86R
PEORIA         CLEAR     66  56  70 NW10G20   29.87R
SPRINGFIELD    CLEAR     71  68  90 W8        29.87R
TAYLORVILLE    NOT AVBL
$$

ILZ033-039-045-046-055>057-062-063-210900-
EAST-CENTRAL ILLINOIS

CITY           SKY/WX    TMP DP  RH WIND       PRES   REMARKS
CHAMPAIGN      PTCLDY    68  67  96 W9        29.84S FOG
MATTOON        PTCLDY    70  68  93 SW8       29.84F
$$

ILZ079-100>102-210900-
SOUTHWEST ILLINOIS

CITY           SKY/WX    TMP DP  RH WIND       PRES   REMARKS
BELLEVILLE     MOCLDY    72  70  94 VRB3      29.89F
CAHOKIA*       MOCLDY    73  70  90 VRB5      29.90S
SPARTA*        CLOUDY    73  68  84 SW9       29.92F
$$

ILZ064>066-069>071-074>076-080>082-084>086-088>090-092>094-210900-
SOUTH-CENTRAL ILLINOIS

CITY           SKY/WX    TMP DP  RH WIND       PRES   REMARKS
CARBONDALE     CLEAR     72  67  84 SW9       29.92F
MT. VERNON     MOCLDY    72  66  83 SW9       29.90F
$$

ILZ067-068-072-073-078-083-087-091-210900-
SOUTHEAST ILLINOIS

CITY           SKY/WX    TMP DP  RH WIND       PRES   REMARKS
LAWRENCEVILLE  CLOUDY    73  68  84 SW9       29.87S
ROBINSON*      TSTM      72  70  93 W10G18    29.88R
$$

ABBREVIATIONS USED IN REMARKS
   TC - TEMPERATURE IN CELSIUS
  WCI - WIND CHILL INDEX
   HX - HEAT INDEX
  VSB - VISIBILITY
$$



USA.gov is the U.S. government's official web portal to all federal, state and local government web resources and services.